Back to catalog

STARLINK-3847

AliveCommunicationsVLEO
NORAD 52333·PAYLOAD·🇺🇸 United States

Launched Apr 29, 2022 from Cape Canaveral Space Force Station

Loading…

Next Passes (next 24 hours)

TLE

FreshSource: CelesTrak SupGP

Epoch: Sep 14, 2026, 21:22 UTC

1 52333C 22045C   26257.89076389  .00047795  00000+0  15374-2 0  2571
2 52333  53.1594  66.0560 0001285  70.9958 103.1790 15.31668880    10

Track STARLINK-3847 in real time with AllMySat

Download on the App Store